Regional Weather Roundup
Issued by NWS

Home | Current Version | Previous Version | Graphics & Text | Print | Product List | Glossary On
Versions: 1 2 3 4 5 6 7 8 9 10 11 12 13 14 15 16 17 18 19 20 21 22 23 24 25 26 27 28 29 30 31 32 33 34 35 36 37 38 39 40 41 42 43 44 45 46 47 48 49 50
000
ASUS43 KDMX 211707
RWRIA

WEATHER ROUNDUP FOR IOWA
NATIONAL WEATHER SERVICE DES MOINES IA
1200 PM CDT MON JUL 21 2014

NOTE: "FAIR" INDICATES FEW OR NO CLOUDS BELOW 12,000 FEET WITH NO
SIGNIFICANT WEATHER AND/OR OBSTRUCTIONS TO VISIBILITY.

* - THESE STATIONS ARE NOT NWS STATIONS...THUS NOT UNDER NWS
QUALITY CONTROL.  THEY ALSO DO NOT REPORT WEATHER SUCH
AS PRECIPITATION OR FOG.

IAZ001>003-012>014-020>022-031>034-043>046-211800-
   NORTHWEST IOWA

CITY           SKY/WX    TMP DP  RH WIND       PRES   REMARKS
CARROLL *      CLOUDY    82  75  78 S10       29.90S HX  89
CHEROKEE *     CLOUDY    81  73  78 S13       29.87S HX  85
DENISON *      PTSUNNY   82  75  78 S12G17    29.87S HX  89
LE MARS *      PTSUNNY   82  75  78 SE14G20   29.84F HX  89
ORANGE CITY *  PTSUNNY   82  73  74 S9        29.85F HX  88
SHELDON *      CLOUDY    79  73  83 SE14G20   29.85S HX  82
SIOUX CITY     MOSUNNY   84  75  74 SE10G21   29.83S HX  92
SPENCER        CLOUDY    81  72  74 S13       29.88S HX  85
STORM LAKE *   CLOUDY    79  77  94 S14       29.90S HX  83
$$

IAZ055>058-069>071-079>083-090>094-211800-
   SOUTHWEST IOWA

CITY           SKY/WX    TMP DP  RH WIND       PRES   REMARKS
ATLANTIC *     MOSUNNY   84  73  70 S18G24    29.89S HX  91
AUDUBON *      SUNNY     88  79  74 S12       29.92S HX 102
CLARINDA *     SUNNY     84  75  74 S15       29.93S HX  92
COUNCIL BLFS * MOSUNNY   86  77  74 S14G21    29.88S HX  97
CRESTON *      SUNNY     84  75  74 S17G24    29.95S HX  92
HARLAN  *      PTSUNNY   84  75  74 S15G21    29.92S HX  92
LAMONI         SUNNY     83  73  72 S14G21    29.97S HX  89
RED OAK *      MOSUNNY   84  75  74 S15       29.91S HX  92
SHENANDOAH *   SUNNY     86  75  70 S15G21    29.91S HX  95
$$

IAZ047>049-059>061-072>074-084-211800-
   CENTRAL IOWA

CITY           SKY/WX    TMP DP  RH WIND       PRES   REMARKS
AMES           MOSUNNY   84  73  69 S14       29.93S HX  90
ANKENY *       SUNNY     84  73  70 S13G20    29.93S HX  91
CHARITON *     SUNNY     84  73  70 S15G22    29.97R HX  91
DES MOINES     MOSUNNY   87  73  62 S16       29.93S HX  94
GRINNELL*      SUNNY     81  72  74 SE14      29.98S HX  84
KNOXVILLE *    MOSUNNY   84  73  70 S17       29.95S HX  91
MARSHALLTOWN   MOSUNNY   81  72  74 S15       29.96S HX  85
PELLA *        SUNNY     84  73  70 S13G22    29.97F HX  91
PERRY *          N/A     84  73  70 S14G20    29.92S HX  91
$$

IAZ004>006-015-016-023>025-035-036-211800-
   NORTH CENTRAL IOWA

CITY           SKY/WX    TMP DP  RH WIND       PRES   REMARKS
ALGONA *       CLOUDY    82  73  74 S14G20    29.90F HX  88
CLARION *      MOSUNNY   82  73  74 S12G20    29.93S HX  88
ESTHERVILLE    PTSUNNY   81  73  76 SE14      29.89S HX  86
FORT DODGE *   CLOUDY    82  72  69 S12       29.92S HX  87
MASON CITY     SUNNY     83  73  72 SE13      29.95S HX  89
FOREST CITY *  MOSUNNY   82  72  69 SE13G20   29.93S HX  87
IOWA FALLS *     N/A     81  72  74 SE13      29.96S HX  84
$$

IAZ007>011-017>019-026>030-037>042-050>054-066-211800-
   NORTHEAST IOWA

CITY           SKY/WX    TMP DP  RH WIND       PRES   REMARKS
CEDAR RAPIDS   PTSUNNY   81  65  58 S15       30.01S HX  83
CHARLES CITY * MOSUNNY   81  72  74 SE14G20   29.97S HX  84
DECORAH *      SUNNY     81  68  65 S12G20    29.99S HX  83
DUBUQUE        SUNNY     80  69  69 S13G22    30.05S HX  83
MONTICELLO *   SUNNY     82  70  65 S14G20    30.03F HX  86
OELWEIN *      MOSUNNY   82  70  65 S16G24    30.00F HX  86
WATERLOO       CLOUDY    83  69  62 S13G21    29.96F HX  86
$$

IAZ064-065-067-068-078-211800-
   EAST CENTRAL IOWA

CITY           SKY/WX    TMP DP  RH WIND       PRES   REMARKS
DAVENPORT      SUNNY     81  67  62 S16       30.06F HX  83
IOWA CITY      SUNNY     82  69  64 S16       30.03S HX  85
MT. PLEASANT * SUNNY     84  66  54 S10G16    30.03F HX  86
MUSCATINE *    SUNNY     84  68  58 S13G20    30.03F HX  87
QUAD CITIES    SUNNY     82  67  60 S9        30.05F HX  84
$$

IAZ062-063-075>077-085>089-095>099-211800-
   SOUTHEAST IOWA

CITY           SKY/WX    TMP DP  RH WIND       PRES   REMARKS
BURLINGTON     SUNNY     83  69  62 S14       30.05S HX  86
FAIRFIELD *    SUNNY     82  70  65 S16G23    30.02S HX  86
FORT MADISON * SUNNY     82  72  69 S9G17     30.06S HX  87
KEOKUK *       SUNNY     81  70  69 S12G21    30.05S HX  84
OSKALOOSA *      N/A     82  73  74 S14G21    29.99F HX  88
OTTUMWA        SUNNY     82  72  71 S17G24    29.99R HX  87
WASHINGTON *   SUNNY     84  72  65 S14G21    30.02F HX  89
$$

ABBREVIATIONS USED IN REMARKS
   TC - TEMPERATURES IN CELSIUS
  WCI - WIND CHILL INDEX
   HX - HEAT INDEX
  VSB - VISIBILITY
$$




USA.gov is the U.S. government's official web portal to all federal, state and local government web resources and services.